星链-30532 (STARLINK-30532 )

导读 | 星芒AI

STARLINK-30532 是SpaceX星链计划中的一颗低轨通信卫星,属于第三代星链卫星(Starlink V1.5或后续版本)。该卫星于2023年发射,旨在为全球提供高速、低延迟的互联网服务。它运行在约550公里高的近地轨道,配备先进相控阵天线和激光通信系统,以提升网络连接效率和稳定性。作为星链星座的一部分,STARLINK-30532 支持偏远地区的宽带接入,并增强整体星座的冗余与覆盖能力。

基本信息
目录编号:
58070
目录名称:
STARLINK-30532
国际标识:
2023-158V
轨道中心:
EARTH
卫星名称:
星链-30532
卫星全名:
星链-30532 (STARLINK-30532 )
卫星状态:
在轨 (已飞行748 天)
发射日期:
2023-10-13 UTC
国别 :
美国 (US)
星等 :
--
轨道信息
数据来源 国际轨道数据
星历时间: 2025-10-30T06:07:48+0800
1天前
查看轨道信息
半长轴: 6937.223km
偏心率: 0.0001071
轨道倾角: 43.005°
近地点辐角 274.609°
升交点赤经 20.614°
平近点角 85.463°
近地点: 558.345km
远地点: 559.831km
周期: 95.838分钟
每日圈数: 15.025341
详细信息
固有亮度:
5
最大亮度:
0.3
卫星平台:
Starlink v2.0 mini
覆盖范围:
全球
运营商:
太空探索技术公司
运营商所在国:
美国
制造商(研发单位):
太空探索技术公司
制造商所在国:
美国
使用方式:
暂无
卫星简介
星链(Starlink)计划是由太空探索技术公司(SpaceX)提出的一个巨型低轨卫星互联网星座项目,计划在2019年至2024年间在太空搭建由约1.2万颗卫星组成的“星链”网络,其中1584颗将部署在地球上空550千米处的近地轨道,并从2020年开始工作。该卫星仍在工作。
2D轨道图
3D轨道图
轨道高度分析图
轨道倾角分析图
轨道综合分析图
查看轨道综合分析图